USA 254

导读

USA 254是美国于2014年7月28日发射的军用侦察卫星,隶属于美国国家侦察局(NRO)。作为美军保密航天任务的一部分,它被归类为信号情报(SIGINT)卫星,承担电子侦察与监测任务。作为美国天基情报监视体系的重要节点,该卫星依托特定轨道运行,为美军提供战略情报支持,延续了美国以“USA”编号保密军用卫星的传统,至今仍在轨道执行侦察任务,是美国全球监控网络的关键太空资产。

Basic Information
目录编号:
40100
目录名称:
USA 254
国际标识:
2014-043B
轨道中心:
EARTH
卫星名称:
USA 254
卫星全名:
--
卫星状态:
在轨 (已飞行4369 天)
发射日期:
2014-07-28 UTC
国别 :
美国 (US)
星等 :
--
Orbit Information
数据来源 国际轨道数据 AOE轨道数据
星历时间 2026-07-13T13:08:23+0800
1天前
查看轨道信息
2026-07-11T02:00:00+0800
3天前
查看轨道信息
半长轴 42488.428km 42488.77km
偏心率 0.0001438 0.0001413
轨道倾角 4.782° 4.777°
近地点辐角 293.496° 294.092°
升交点赤经 75.836° 75.863°
平近点角 47.265° 247.267°
近地点 36104.181km 36104.629km
远地点 36116.401km 36116.637km
周期 1452.666分钟 1452.683分钟
每日圈数 0.991281 0.991269
Detailed Information
使用方式:
暂无
2D Orbit Map
3D Orbit Map
Orbit Altitude Analysis Chart
Orbit Inclination Analysis Chart
Orbit Comprehensive Analysis Chart
View Comprehensive Chart